• In Schweiz
  • Länderverzeichnis
  • Für 7 Tage
  • Wassertemperatur
  • Satellitenkarten
  • Wetterkarte
  • Widgets
  • user-avatar
    Anmelden

    Stündliche Wetter Al-Basra

    Heute, 21 Oktober, Sonntag

    Zeit Temperatur Niederschläge Wind Luftdruck Luftfeuchtigkeit
    00:00 +30°C° 0 mm 3 m/S 756 mmHg 36%
    01:00 +30°C° 0 mm 3 m/S 756 mmHg 39%
    02:00 +29°C° 0 mm 3 m/S 756 mmHg 42%
    03:00 +29°C° 0 mm 3 m/S 756 mmHg 45%
    04:00 +29°C° 0 mm 3 m/S 756 mmHg 49%
    05:00 +28°C° 0 mm 3 m/S 756 mmHg 52%
    06:00 +28°C° 0 mm 3 m/S 757 mmHg 55%
    07:00 +30°C° 0 mm 3 m/S 757 mmHg 49%
    08:00 +33°C° 0 mm 4 m/S 757 mmHg 43%
    09:00 +34°C° 0 mm 5 m/S 758 mmHg 37%
    10:00 +36°C° 0 mm 5 m/S 757 mmHg 32%
    11:00 +37°C° 0 mm 5 m/S 757 mmHg 27%
    12:00 +40°C° 0 mm 6 m/S 757 mmHg 22%
    13:00 +40°C° 0 mm 6 m/S 756 mmHg 22%
    14:00 +40°C° 0 mm 6 m/S 756 mmHg 22%
    15:00 +40°C° 0 mm 6 m/S 756 mmHg 22%
    16:00 +39°C° 0 mm 6 m/S 756 mmHg 27%
    17:00 +38°C° 0 mm 7 m/S 756 mmHg 31%
    18:00 +35°C° 0 mm 8 m/S 755 mmHg 36%
    19:00 +35°C° 0.2 mm 7 m/S 756 mmHg 40%
    20:00 +34°C° 0.2 mm 7 m/S 756 mmHg 44%
    21:00 +33°C° 0.2 mm 7 m/S 757 mmHg 48%
    22:00 +33°C° 0.8 mm 6 m/S 757 mmHg 50%
    23:00 +32°C° 0.8 mm 5 m/S 757 mmHg 52%

    Morgen, 22 Oktober, Montag

    Zeit Temperatur Niederschläge Wind Luftdruck Luftfeuchtigkeit
    00:00 +32°C° 0.8 mm 5 m/S 757 mmHg 53%
    01:00 +32°C° 1 mm 5 m/S 757 mmHg 53%
    02:00 +32°C° 1 mm 6 m/S 757 mmHg 53%
    03:00 +30°C° 1 mm 6 m/S 757 mmHg 52%
    04:00 +30°C° 0.2 mm 7 m/S 757 mmHg 54%
    05:00 +29°C° 0.2 mm 7 m/S 758 mmHg 55%
    06:00 +28°C° 0.2 mm 7 m/S 758 mmHg 57%
    07:00 +29°C° 0.2 mm 7 m/S 758 mmHg 54%
    08:00 +30°C° 0.2 mm 7 m/S 758 mmHg 52%
    09:00 +32°C° 0.2 mm 8 m/S 759 mmHg 49%
    10:00 +33°C° 0.1 mm 8 m/S 758 mmHg 46%
    11:00 +35°C° 0.1 mm 8 m/S 758 mmHg 42%
    12:00 +36°C° 0.1 mm 7 m/S 758 mmHg 39%
    13:00 +36°C° 0 mm 7 m/S 757 mmHg 38%
    14:00 +38°C° 0 mm 7 m/S 757 mmHg 37%
    15:00 +38°C° 0 mm 6 m/S 756 mmHg 36%
    16:00 +36°C° 0 mm 7 m/S 756 mmHg 41%
    17:00 +35°C° 0 mm 7 m/S 756 mmHg 46%
    18:00 +34°C° 0 mm 7 m/S 756 mmHg 50%
    19:00 +33°C° 0 mm 7 m/S 757 mmHg 52%
    20:00 +33°C° 0 mm 6 m/S 757 mmHg 54%
    21:00 +33°C° 0 mm 6 m/S 757 mmHg 55%
    22:00 +32°C° 0 mm 5 m/S 757 mmHg 56%
    23:00 +32°C° 0 mm 4 m/S 757 mmHg 57%

    übermorgen, 23 Oktober, Dienstag

    Zeit Temperatur Niederschläge Wind Luftdruck Luftfeuchtigkeit
    00:00 +31°C° 0 mm 3 m/S 757 mmHg 58%
    01:00 +31°C° 0.1 mm 3 m/S 757 mmHg 58%
    02:00 +31°C° 0.1 mm 2 m/S 757 mmHg 59%
    03:00 +31°C° 0.1 mm 2 m/S 757 mmHg 60%
    04:00 +30°C° 0 mm 2 m/S 757 mmHg 61%
    05:00 +30°C° 0 mm 2 m/S 757 mmHg 61%
    06:00 +30°C° 0 mm 2 m/S 757 mmHg 61%
    07:00 +31°C° 0 mm 2 m/S 758 mmHg 57%
    08:00 +33°C° 0 mm 3 m/S 758 mmHg 52%
    09:00 +34°C° 0 mm 3 m/S 758 mmHg 48%
    10:00 +35°C° 0 mm 3 m/S 758 mmHg 44%
    11:00 +36°C° 0 mm 3 m/S 758 mmHg 40%
    12:00 +37°C° 0 mm 2 m/S 757 mmHg 37%
    13:00 +37°C° 0 mm 2 m/S 757 mmHg 34%
    14:00 +38°C° 0 mm 2 m/S 757 mmHg 31%
    15:00 +38°C° 0 mm 2 m/S 756 mmHg 28%
    16:00 +37°C° 0 mm 3 m/S 756 mmHg 28%
    17:00 +37°C° 0 mm 3 m/S 756 mmHg 28%
    18:00 +36°C° 0 mm 3 m/S 756 mmHg 28%
    19:00 +36°C° 0 mm 3 m/S 756 mmHg 28%
    20:00 +35°C° 0 mm 4 m/S 757 mmHg 28%
    21:00 +34°C° 0 mm 4 m/S 757 mmHg 27%
    22:00 +34°C° 0 mm 3 m/S 757 mmHg 27%
    23:00 +33°C° 0 mm 3 m/S 757 mmHg 28%

    24 Oktober, Mittwoch

    Zeit Temperatur Niederschläge Wind Luftdruck Luftfeuchtigkeit
    00:00 +31°C° 0 mm 3 m/S 757 mmHg 28%
    01:00 +31°C° 0 mm 3 m/S 756 mmHg 29%
    02:00 +30°C° 0 mm 3 m/S 756 mmHg 31%
    03:00 +30°C° 0 mm 3 m/S 756 mmHg 32%
    04:00 +30°C° 0 mm 3 m/S 756 mmHg 34%
    05:00 +29°C° 0 mm 3 m/S 756 mmHg 35%
    06:00 +29°C° 0 mm 3 m/S 756 mmHg 37%
    07:00 +30°C° 0 mm 2 m/S 756 mmHg 34%
    08:00 +32°C° 0 mm 2 m/S 757 mmHg 31%
    09:00 +34°C° 0 mm 2 m/S 757 mmHg 29%
    10:00 +34°C° 0 mm 1 m/S 757 mmHg 26%
    11:00 +35°C° 0 mm 1 m/S 756 mmHg 24%
    12:00 +34°C° 0 mm 0 m/S 756 mmHg 22%
    13:00 +36°C° 0 mm 1 m/S 755 mmHg 20%
    14:00 +37°C° 0 mm 1 m/S 755 mmHg 19%
    15:00 +37°C° 0 mm 1 m/S 754 mmHg 18%
    16:00 +36°C° 0 mm 1 m/S 755 mmHg 19%
    17:00 +36°C° 0 mm 1 m/S 755 mmHg 20%
    18:00 +35°C° 0 mm 1 m/S 755 mmHg 21%
    19:00 +34°C° 0 mm 1 m/S 755 mmHg 22%
    20:00 +34°C° 0 mm 1 m/S 755 mmHg 24%
    21:00 +33°C° 0 mm 1 m/S 755 mmHg 25%
    22:00 +34°C° 0 mm 2 m/S 755 mmHg 25%
    23:00 +32°C° 0 mm 2 m/S 755 mmHg 25%

    25 Oktober, Donnerstag

    Zeit Temperatur Niederschläge Wind Luftdruck Luftfeuchtigkeit
    00:00 +33°C° 0 mm 3 m/S 754 mmHg 25%
    01:00 +33°C° 0 mm 3 m/S 754 mmHg 26%
    02:00 +31°C° 0 mm 3 m/S 754 mmHg 27%
    03:00 +31°C° 0 mm 3 m/S 754 mmHg 28%
    04:00 +31°C° 0 mm 3 m/S 754 mmHg 30%
    05:00 +30°C° 0 mm 3 m/S 754 mmHg 31%
    06:00 +30°C° 0 mm 3 m/S 754 mmHg 33%
    07:00 +33°C° 0 mm 4 m/S 755 mmHg 32%
    08:00 +34°C° 0 mm 5 m/S 755 mmHg 32%
    09:00 +35°C° 0 mm 6 m/S 755 mmHg 31%
    10:00 +36°C° 0 mm 6 m/S 755 mmHg 30%
    11:00 +38°C° 0 mm 6 m/S 754 mmHg 28%
    12:00 +38°C° 0 mm 6 m/S 754 mmHg 27%
    13:00 +39°C° 0 mm 6 m/S 754 mmHg 26%
    14:00 +39°C° 0 mm 6 m/S 753 mmHg 25%
    15:00 +40°C° 0 mm 6 m/S 753 mmHg 24%
    16:00 +39°C° 0 mm 7 m/S 753 mmHg 30%
    17:00 +36°C° 0 mm 7 m/S 753 mmHg 35%
    18:00 +35°C° 0 mm 7 m/S 753 mmHg 41%
    19:00 +35°C° 0 mm 7 m/S 753 mmHg 45%
    20:00 +34°C° 0 mm 8 m/S 753 mmHg 49%
    21:00 +34°C° 0 mm 8 m/S 754 mmHg 52%
    22:00 +34°C° 0 mm 8 m/S 753 mmHg 52%
    23:00 +34°C° 0 mm 7 m/S 753 mmHg 52%

    26 Oktober, Freitag

    Zeit Temperatur Niederschläge Wind Luftdruck Luftfeuchtigkeit
    00:00 +34°C° 0 mm 7 m/S 753 mmHg 51%
    01:00 +34°C° 0 mm 7 m/S 753 mmHg 50%
    02:00 +34°C° 0 mm 6 m/S 753 mmHg 49%
    03:00 +34°C° 0 mm 6 m/S 753 mmHg 48%
    04:00 +34°C° 0 mm 5 m/S 753 mmHg 46%
    05:00 +34°C° 0 mm 4 m/S 753 mmHg 44%
    06:00 +33°C° 0 mm 3 m/S 754 mmHg 43%
    07:00 +34°C° 0 mm 4 m/S 754 mmHg 38%
    08:00 +36°C° 0 mm 5 m/S 755 mmHg 34%
    09:00 +38°C° 0 mm 6 m/S 755 mmHg 30%
    10:00 +39°C° 0 mm 5 m/S 755 mmHg 25%
    11:00 +41°C° 0 mm 5 m/S 754 mmHg 20%
    12:00 +42°C° 0 mm 5 m/S 754 mmHg 15%
    13:00 +42°C° 0.2 mm 4 m/S 754 mmHg 16%
    14:00 +42°C° 0.2 mm 4 m/S 754 mmHg 16%
    15:00 +42°C° 0.2 mm 3 m/S 753 mmHg 17%
    16:00 +41°C° 0.2 mm 4 m/S 754 mmHg 20%
    17:00 +40°C° 0.2 mm 4 m/S 754 mmHg 24%
    18:00 +37°C° 0.2 mm 4 m/S 754 mmHg 27%
    19:00 +37°C° 0.3 mm 4 m/S 755 mmHg 30%
    20:00 +36°C° 0.3 mm 3 m/S 755 mmHg 32%
    21:00 +35°C° 0.3 mm 3 m/S 755 mmHg 35%
    22:00 +34°C° 0 mm 3 m/S 755 mmHg 37%
    23:00 +34°C° 0 mm 3 m/S 755 mmHg 39%
    Mehr zeigen